Regional Weather Roundup
Issued by NWS Bismarck, ND

Home | Current Version | Previous Version | Text Only | Print | Product List | Glossary On
Versions: 1 2 3 4 5 6 7 8 9 10 11 12 13 14 15 16 17 18 19 20 21 22 23 24 25 26 27 28 29 30 31 32 33 34 35 36 37 38 39 40 41 42 43 44 45 46 47 48 49 50
000
ASUS43 KBIS 010610
RWRBIS

NWR BROADCAST TEXT
NATIONAL WEATHER SERVICE BISMARCK ND
100 AM CDT TUE SEP 01 2015

NOTE: "FAIR" INDICATES FEW OR NO CLOUDS BELOW 12,000 FEET WITH NO
SIGNIFICANT WEATHER AND/OR OBSTRUCTIONS TO VISIBILITY.


CITY           SKY/WX    TMP DP  RH WIND       PRES   REMARKS
WILLISTON      CLEAR     54  42  64 CALM      29.87S
MINOT          FAIR      61  45  55 SW10      29.85R
MINOT AFB      NOT AVBL
BISMARCK       CLEAR     57  51  80 SE5       29.90S
DICKINSON      PTCLDY    55  42  61 S7        29.89S
GARRISON         N/A     59  50  72 CALM      29.87S
HETTINGER ARPT CLEAR     60  49  66 SE8       29.94F
JAMESTOWN      FAIR      57  53  86 CALM      29.91R
CROSBY         FAIR      55  43  62 S10       29.84F
HARVEY         FAIR      48  46  93 S6        29.87S
HAZEN          FAIR      48  45  87 CALM      29.89R
LINTON         FAIR      61  55  82 SE7       29.92R
OAKES            N/A     63  63 100 W5        29.91S
RUGBY          FAIR      57  46  67 S8        29.85S
STANLEY        FAIR      52  45  76 SW5       29.89R
$$

CITY           SKY/WX    TMP DP  RH WIND       PRES   REMARKS
GRAND FORKS    FAIR      58  55  90 SW3       29.85S
GRAND FORKS AF FAIR      58  55  89 SW5       29.86R
DEVILS LAKE    FAIR      64  50  59 SW5       29.85F
FARGO          FAIR      63  60  90 S3        29.88S FOG
CAVALIER       FAIR      55  48  76 SW3       29.83S
GRAFTON        FAIR      57  52  82 SW7       29.85S
GWINNER          N/A     63  63 100 W5        29.91S
LANGDON        FAIR      50  45  81 S6        29.86S
ROLLA          FAIR      48  45  87 SW7       29.87S
WALHALLA       FAIR      63  45  51 MISG      29.83R
$$

CITY           SKY/WX    TMP DP  RH WIND       PRES   REMARKS
ABERDEEN       MOCLDY    60  57  89 CALM      29.91S
MOBRIDGE       CLOUDY    62  58  86 SE5       29.90S
BUFFALO          N/A     60  52  74 E9        29.86F
RAPID CITY     PTCLDY    61  56  83 CALM      29.93F
GLASGOW        PTCLDY    55  46  71 E6        29.84R
SIDNEY         CLEAR     52  41  66 CALM      29.87S
WOLF POINT     CLEAR     50  43  77 VRB5      29.85S
GLENDIVE       CLEAR     54  37  54 CALM      29.91S
MILES CITY     CLEAR     65  40  39 NE7       29.88S
BAKER          PTCLDY    64  51  62 S16       29.91F
$$

CITY           SKY/WX    TMP DP  RH WIND       PRES   REMARKS
BILLINGS       PTCLDY    70  32  24 SE5       29.90S
GREAT FALLS    MOCLDY    59  37  44 S7        29.87F
REGINA         CLOUDY    54  48  82 SW6       29.76R
ESTEVAN        PTCLDY    54  43  66 S7        29.83R
$$




USA.gov is the U.S. government's official web portal to all federal, state and local government web resources and services.